Temperature
20 21 21 20 20 20 18 18 17 16 15 13 13 13 14 14 14 14 13 13 13 13 12 12 12 12 12 11 11 11 11 11 10 10 10 10 10 9 9 9 9 9 9 9
19 21 20 19 19 19 18 17 17 15 14 14 14 14 14 14 14 13 13 13 13 12 12 12 12 12 11 11 11 11 11 10 10 10 10 9 9 9 9 9 9 9 9 9
18 19 20 16 17 17 17 15 15 13 13 12 12 12 13 13 13 13 13 12 12 12 12 12 11 11 11 11 11 11 10 10 10 10 10 9 9 9 8 8 8 8 9 9
17 18 19 17 18 18 16 14 14 14 13 13 13 13 13 13 13 12 12 12 12 11 11 11 10 10 10 10 10 9 9 9 9 9 9 9 8 8 8 8 8 8 8 8
16 18 18 18 18 17 16 14 14 13 12 13 13 12 12 13 12 12 12 11 11 10 10 9 9 9 8 8 8 8 8 8 8 8 8 8 8 8 7 7 7 7 8 8
17 18 17 17 18 18 17 14 13 13 12 12 11 9 10 12 12 11 11 10 9 9 8 8 7 7 7 6 6 6 6 6 6 6 6 6 7 7 7 7 7 7 7 7
16 17 16 16 17 16 14 13 13 13 13 12 11 10 12 12 11 10 10 9 8 8 7 7 6 6 5 5 5 5 5 5 5 5 5 5 6 6 6 6 6 6 7 7
15 16 15 16 15 14 13 14 14 13 13 12 12 12 11 11 10 9 8 8 7 6 6 5 5 5 4 4 4 4 4 4 4 4 4 4 5 5 5 6 6 6 6 7
14 14 15 16 15 15 14 14 13 13 12 12 12 11 10 10 9 8 8 7 6 5 5 5 5 4 4 4 4 4 4 4 4 4 4 4 4 5 5 5 5 6 6 6
15 15 15 15 15 14 14 13 13 12 12 12 11 10 9 9 8 7 7 6 5 5 5 5 5 5 5 4 4 4 4 4 4 4 4 4 4 4 5 5 5 6 6 6
15 15 15 15 15 14 14 13 13 12 12 11 10 9 9 8 7 7 6 5 5 5 5 5 5 5 5 5 4 4 4 4 4 4 4 4 4 4 5 5 6 6 6 6
14 15 14 15 14 14 13 13 12 11 11 10 10 9 8 7 7 6 6 5 5 5 5 5 5 5 5 5 5 4 4 4 4 4 4 4 4 5 5 5 6 6 6 6
17 16 15 15 14 13 13 12 12 11 10 10 9 8 8 7 6 6 6 5 5 5 5 5 5 6 5 5 5 5 5 5 4 4 4 4 5 5 5 6 6 6 6 6
16 16 15 14 14 13 12 12 11 10 10 9 8 8 7 7 6 6 5 5 5 5 5 5 6 6 6 6 5 5 5 5 5 5 5 5 5 5 5 6 6 6 6 6
16 15 15 14 13 13 12 11 11 10 9 9 8 7 7 6 6 6 5 5 6 6 6 6 6 6 6 6 6 6 6 6 6 6 6 6 6 6 6 6 6 6 6 6
16 15 14 14 13 12 11 11 10 9 9 8 8 7 7 6 6 6 6 6 6 6 6 6 6 7 7 7 7 7 6 6 6 6 6 6 6 6 6 6 6 6 6 6
16 15 14 13 12 12 11 10 10 9 9 8 7 7 7 6 6 6 6 6 6 6 6 6 6 7 7 7 7 7 7 7 7 7 7 7 7 7 7 7 7 6 6 6
16 15 14 13 12 12 11 10 9 9 8 8 7 7 6 6 6 6 6 6 6 7 7 7 7 7 7 7 7 7 7 7 7 7 7 7 7 7 7 7 7 7 7 6
15 14 14 13 12 11 10 10 9 9 8 8 7 7 6 6 6 6 6 6 6 6 6 7 7 7 8 8 8 8 8 8 8 7 7 7 7 7 7 7 7 7 7 6
15 14 13 13 12 11 10 10 9 9 8 8 7 7 6 6 6 6 6 6 6 6 7 7 7 8 8 8 8 8 8 8 8 8 8 8 8 7 7 7 7 7 7 7
14 14 13 12 12 11 10 9 9 9 8 8 7 7 6 6 6 6 6 6 7 7 7 7 7 8 8 8 8 8 8 8 8 8 8 8 8 8 8 7 7 7 7 7
14 14 13 12 11 10 10 9 9 9 8 8 7 7 6 6 6 6 6 6 6 7 7 7 7 8 8 8 8 8 8 8 8 8 8 8 8 8 8 8 7 7 7 7
14 14 13 12 11 10 10 9 9 8 8 7 7 6 6 6 5 5 6 6 6 7 7 8 8 8 8 9 8 8 8 8 8 8 8 8 8 8 8 8 7 7 7 8
14 13 13 12 11 10 10 9 9 8 8 7 7 6 6 6 6 5 5 6 6 7 8 8 8 9 9 9 9 8 8 8 8 8 8 8 8 8 8 8 8 8 8 8
14 13 13 12 11 11 10 9 9 8 8 7 7 6 6 6 5 5 6 6 7 8 8 8 9 9 9 9 9 9 9 9 9 9 9 9 9 9 9 9 9 9 9 9
14 14 13 12 12 11 10 10 9 8 8 7 7 6 6 6 5 5 5 6 6 7 8 8 9 9 9 9 9 9 9 9 10 9 9 9 9 9 9 9 9 9 9 10
14 13 13 12 12 11 10 10 9 8 8 7 7 6 6 6 5 5 5 5 6 6 7 8 8 9 9 9 9 10 10 10 10 10 10 10 10 10 10 10 10 10 10 10
Wind_Speed
4 2 7 9 9 10 9 5 2 3 2 4 6 5 7 9 11 10 9 8 10 10 10 10 11 11 11 11 11 11 11 11 12 12 12 11 11 11 11 11 12 11 10 10
6 5 10 10 11 8 7 5 4 3 1 4 6 6 8 11 12 11 10 12 13 13 12 12 12 12 12 12 12 12 12 13 12 11 11 11 11 11 10 11 11 11 11 11
5 7 4 6 6 6 4 4 4 2 4 8 8 9 10 11 11 11 13 15 15 14 14 14 14 14 14 14 13 12 13 13 12 12 11 11 11 9 10 11 11 11 12 11
2 7 4 3 1 5 4 4 4 1 6 7 9 10 9 10 10 13 15 15 15 14 14 14 14 14 14 14 13 12 12 12 12 11 11 10 10 9 10 9 9 10 11 11
2 2 2 0 3 2 1 3 2 4 8 9 9 8 7 10 11 14 16 16 15 14 16 14 14 15 15 15 14 13 13 12 11 10 10 10 10 10 9 8 8 8 8 10
3 2 4 3 4 4 2 3 2 7 8 10 10 10 8 11 13 13 14 13 12 12 13 14 15 15 16 16 16 16 15 14 13 11 11 10 10 10 9 8 9 9 9 9
2 2 3 3 5 5 4 7 7 6 8 8 8 9 12 15 13 12 12 13 13 14 14 15 16 16 17 17 17 16 16 15 14 12 11 11 10 9 9 8 8 8 9 9
2 2 5 4 4 3 5 6 6 6 7 8 10 12 12 12 13 14 13 13 14 14 16 16 16 16 18 19 18 16 15 15 14 12 12 12 9 8 8 8 8 8 8 8
6 6 5 2 5 5 5 4 5 6 8 8 10 10 12 11 12 12 14 15 15 17 19 18 17 16 19 19 18 17 15 14 13 12 10 10 9 9 8 7 7 7 6 7
2 3 5 4 3 1 1 3 5 6 8 8 9 11 11 11 12 14 14 15 16 19 20 21 19 18 17 18 17 15 15 13 10 9 9 8 8 7 7 7 7 6 6 6
2 2 2 2 3 2 3 5 6 7 7 9 9 9 9 11 13 14 14 16 17 18 19 21 20 20 18 16 15 14 12 10 8 7 7 7 6 6 7 7 7 7 7 6
5 6 4 5 4 2 5 6 7 8 9 9 8 9 10 12 12 13 17 17 18 19 19 20 19 19 17 15 13 12 10 9 6 5 5 5 5 5 6 7 10 12 11 8
7 6 6 3 1 3 3 6 7 7 8 8 8 8 10 11 12 15 16 18 19 19 19 18 18 18 17 15 13 11 10 8 6 5 4 4 4 3 3 2 1 3 5 7
7 6 3 1 0 2 4 5 6 7 7 8 7 8 10 11 14 17 17 18 18 18 17 17 17 17 16 15 13 11 9 8 7 4 4 4 3 3 2 2 1 1 2 2
7 7 6 4 2 4 4 5 6 7 8 8 7 9 11 13 15 16 16 16 17 17 16 16 17 18 17 14 13 11 8 6 5 4 3 3 2 1 1 3 3 3 3 3
7 7 6 5 3 3 4 5 5 7 7 7 8 10 11 13 14 15 15 16 17 18 16 16 17 17 16 14 12 10 8 11 8 4 3 3 2 1 1 3 4 4 4 4
7 5 4 3 2 2 3 4 4 6 6 7 9 10 11 13 14 16 17 17 16 15 14 15 17 17 15 13 11 9 8 8 9 5 3 3 2 1 1 3 4 4 4 5
8 8 8 7 4 1 3 4 5 6 5 6 8 9 10 12 14 15 16 17 16 15 15 17 18 17 14 13 11 8 7 5 4 4 3 2 2 1 1 2 4 4 3 4
9 9 8 7 5 3 1 3 5 5 5 6 8 9 10 10 11 13 14 15 15 16 18 19 22 16 14 15 15 8 7 6 4 4 3 3 3 2 2 3 4 4 4 4
9 9 8 7 5 3 1 4 4 4 5 6 7 8 10 11 12 13 13 11 10 13 17 19 17 14 14 13 15 8 7 5 4 3 3 3 2 2 2 3 4 4 4 4
10 9 8 6 4 1 2 4 3 3 5 6 6 8 9 10 10 11 12 12 14 17 19 18 14 14 13 13 12 7 7 5 4 3 3 3 2 2 2 3 4 4 4 4
9 8 8 6 4 2 3 3 2 2 4 6 6 7 9 10 10 10 9 8 13 18 16 12 13 17 18 14 7 7 7 6 4 4 3 3 2 2 2 3 3 4 4 4
8 8 8 6 5 3 3 2 1 1 3 4 6 6 7 7 7 9 11 11 12 18 15 12 19 24 20 10 8 8 7 6 5 4 3 3 2 2 3 3 3 4 4 4
8 8 8 6 5 2 1 2 1 1 1 3 4 5 5 6 6 6 8 13 16 17 12 14 21 23 17 10 10 9 9 8 6 5 4 3 2 2 2 3 3 3 4 4
9 9 7 6 5 4 4 2 1 2 2 3 5 5 5 4 5 8 10 11 15 15 12 15 19 20 14 11 11 10 9 9 8 6 5 3 2 1 1 1 2 2 3 3
9 8 7 7 6 5 5 3 2 1 1 2 3 4 5 5 7 8 9 11 13 14 12 11 13 14 12 12 12 11 11 11 10 8 7 5 3 2 1 1 2 2 3 3
8 7 5 4 5 6 5 4 4 3 2 2 2 4 5 6 7 8 10 10 11 11 11 11 11 11 11 12 12 11 11 11 10 10 9 7 6 4 3 3 3 3 3 3
Wind_Direction
302 5 76 71 56 62 71 76 82 330 99 345 337 331 321 316 314 313 315 313 305 295 282 275 270 264 257 252 248 245 242 241 241 242 243 244 246 248 249 249 250 248 248 251
358 70 93 68 45 45 47 37 21 44 78 314 314 323 322 319 317 313 308 308 304 297 291 284 278 273 266 260 255 247 242 239 236 235 236 236 239 242 246 248 249 247 244 244
333 324 74 28 23 46 38 33 61 47 298 305 318 319 309 308 307 302 305 306 303 298 291 288 285 282 279 274 266 255 246 241 235 230 229 230 235 237 238 242 245 244 244 240
351 15 11 239 82 76 97 98 69 356 294 297 297 293 287 293 297 301 302 302 300 298 297 295 293 294 292 289 282 271 261 254 245 234 230 228 228 232 236 237 236 239 239 236
73 347 237 285 10 10 294 192 53 342 322 316 305 303 290 281 289 294 297 299 302 304 307 309 309 310 309 304 298 292 285 273 260 248 241 234 229 230 232 234 236 235 233 231
64 335 265 246 315 300 319 258 332 352 328 316 330 330 304 300 300 299 301 305 311 314 313 313 312 312 309 304 299 293 289 282 272 261 253 247 240 235 232 230 235 237 237 230
50 285 275 287 319 35 55 280 299 308 307 310 309 285 293 306 310 311 312 315 316 316 316 314 314 313 308 304 300 297 293 287 277 264 254 249 245 240 235 234 235 236 237 235
98 334 274 317 49 81 241 258 285 295 297 299 293 293 301 309 314 319 321 320 321 321 319 317 316 314 310 306 302 299 294 288 282 272 265 265 249 240 233 227 229 234 235 240
180 209 220 122 139 191 212 262 283 292 300 301 306 307 314 316 320 321 321 323 324 324 322 321 319 315 310 307 304 301 296 289 281 273 265 260 253 246 239 227 226 229 224 233
135 156 160 145 148 223 275 305 305 306 308 314 314 316 322 322 323 325 327 327 330 329 327 325 323 319 311 309 308 303 299 295 287 277 270 261 253 243 235 228 222 221 220 227
163 172 162 340 343 350 5 350 334 324 318 322 323 323 324 325 327 329 330 331 331 329 326 324 324 322 319 317 315 312 308 301 293 284 276 269 257 243 232 225 213 209 213 212
210 218 191 253 280 23 20 344 329 329 327 327 329 326 328 327 327 329 331 332 330 329 327 325 325 324 324 322 319 317 314 307 297 289 284 277 272 274 254 239 231 222 219 211
169 178 179 217 39 31 357 337 335 336 332 330 329 329 330 328 328 332 332 333 331 328 326 325 326 326 327 327 326 322 316 311 303 293 285 281 273 262 274 315 321 219 221 221
159 150 142 145 175 359 359 345 344 338 332 328 327 330 331 329 331 334 333 331 329 327 326 327 328 328 329 330 330 329 324 321 316 291 282 278 270 250 214 183 141 82 65 87
161 150 158 152 84 23 4 353 348 336 328 330 333 332 333 334 333 332 330 331 330 330 330 332 332 330 330 332 333 332 331 327 322 316 304 289 277 256 188 166 154 133 112 80
149 131 121 103 63 18 360 352 342 328 328 332 333 329 330 328 329 330 333 336 335 333 332 334 334 331 331 332 335 334 332 338 344 339 341 348 3 33 111 141 144 141 146 149
146 155 144 129 94 26 356 340 331 324 328 332 326 325 328 331 335 338 337 335 331 328 331 336 334 331 332 335 336 335 331 337 352 359 357 359 8 29 108 135 144 145 154 170
158 160 157 149 146 88 354 344 330 325 321 317 323 328 331 334 334 334 333 332 334 338 342 340 335 332 331 334 337 333 333 335 347 351 355 3 8 29 99 132 143 137 132 146
144 142 139 131 128 115 25 319 312 312 312 320 328 327 323 324 328 332 333 335 341 345 341 336 331 334 331 332 338 329 333 339 346 352 0 19 34 43 72 107 114 114 125 130
145 142 137 128 117 115 318 304 312 312 309 320 328 329 330 332 334 336 336 335 340 340 333 329 331 333 332 329 332 327 331 338 343 347 360 16 28 40 60 98 113 115 119 125
152 150 143 137 132 132 299 306 307 308 313 327 332 328 326 326 330 335 340 341 339 340 337 329 335 336 332 328 325 327 333 340 347 352 6 21 28 35 60 93 107 115 120 127
161 157 154 152 160 227 283 285 276 305 329 336 336 336 337 338 339 338 333 333 332 335 338 335 340 336 336 332 337 339 342 348 353 356 6 23 40 53 74 96 110 118 121 126
168 168 165 170 183 219 272 272 275 314 336 340 343 344 342 337 339 342 340 336 338 335 337 337 338 339 342 351 353 352 352 354 357 358 3 15 38 60 77 92 105 115 120 126
175 175 176 182 177 179 227 248 266 316 358 354 351 351 350 344 339 335 326 329 338 337 340 337 341 346 353 3 4 4 2 0 358 354 356 6 24 45 66 85 95 104 116 127
180 179 178 177 183 195 198 188 106 49 34 8 356 357 360 355 342 336 338 341 343 345 345 344 347 351 0 3 4 4 3 4 2 0 2 2 8 25 51 97 114 119 124 136
184 188 189 190 184 176 171 155 141 132 82 22 357 355 355 350 346 348 346 346 347 347 350 353 353 356 1 1 3 5 5 4 6 6 3 4 5 11 52 119 132 128 134 142
192 190 180 170 165 161 157 152 150 149 135 102 35 4 2 357 356 356 354 353 353 353 354 356 357 360 1 2 3 6 8 7 5 3 1 4 9 17 31 57 78 94 113 130
Height
1508 1503 1503 1507 1507 1507 1512 1516 1523 1522 1523 1523 1518 1516 1513 1509 1504 1500 1495 1492 1487 1483 1478 1474 1469 1465 1461 1457 1453 1450 1447 1444 1442 1440 1439 1437 1435 1434 1432 1431 1430 1429 1429 1428
1513 1506 1507 1513 1512 1511 1513 1515 1518 1519 1523 1519 1516 1513 1509 1504 1499 1494 1490 1485 1480 1475 1470 1465 1460 1455 1450 1446 1442 1439 1436 1433 1431 1430 1428 1427 1426 1424 1423 1422 1421 1421 1421 1421
1523 1512 1510 1526 1520 1518 1519 1520 1522 1526 1525 1518 1514 1510 1506 1500 1496 1491 1486 1480 1473 1468 1462 1456 1450 1444 1439 1435 1431 1427 1424 1421 1419 1418 1417 1416 1415 1415 1414 1413 1413 1412 1412 1413
1526 1524 1530 1526 1515 1515 1519 1523 1521 1521 1519 1515 1512 1507 1502 1498 1492 1486 1480 1473 1466 1460 1453 1447 1441 1435 1429 1424 1419 1415 1411 1409 1407 1405 1404 1404 1404 1404 1404 1404 1403 1403 1403 1404
1531 1530 1526 1521 1516 1516 1518 1521 1520 1518 1514 1510 1506 1501 1497 1493 1488 1482 1475 1468 1461 1454 1447 1439 1433 1426 1419 1413 1408 1403 1399 1396 1394 1393 1391 1391 1391 1392 1392 1393 1393 1394 1394 1395
1528 1530 1532 1525 1516 1513 1514 1519 1517 1514 1510 1506 1501 1499 1492 1487 1482 1475 1469 1462 1455 1447 1440 1432 1425 1418 1410 1403 1397 1392 1387 1384 1381 1380 1379 1378 1379 1380 1381 1382 1383 1384 1385 1386
1530 1531 1526 1520 1515 1515 1526 1525 1515 1512 1508 1504 1500 1497 1488 1481 1475 1469 1463 1456 1448 1440 1432 1424 1416 1408 1400 1393 1387 1381 1376 1372 1369 1367 1366 1366 1367 1368 1370 1371 1373 1374 1375 1376
1531 1534 1532 1517 1516 1520 1522 1515 1512 1509 1505 1501 1496 1490 1484 1477 1471 1464 1456 1449 1441 1433 1424 1416 1409 1400 1392 1384 1377 1371 1365 1360 1357 1355 1354 1354 1356 1357 1359 1361 1363 1365 1367 1368
1524 1526 1518 1516 1516 1516 1515 1512 1509 1505 1501 1497 1491 1485 1479 1473 1466 1459 1451 1443 1435 1426 1417 1409 1401 1394 1384 1376 1368 1361 1356 1351 1347 1345 1345 1345 1346 1348 1350 1352 1355 1357 1359 1360
1516 1516 1515 1515 1514 1513 1511 1509 1505 1502 1498 1493 1487 1481 1475 1469 1462 1454 1446 1438 1429 1421 1411 1403 1395 1387 1379 1370 1362 1354 1348 1344 1341 1338 1338 1338 1339 1340 1342 1345 1347 1350 1352 1354
1514 1513 1513 1512 1511 1509 1507 1504 1501 1498 1494 1490 1484 1478 1472 1465 1458 1450 1442 1434 1425 1417 1408 1399 1390 1382 1374 1365 1357 1350 1344 1340 1337 1335 1333 1333 1334 1335 1337 1339 1342 1344 1347 1349
1514 1510 1510 1510 1508 1506 1504 1501 1498 1494 1490 1486 1481 1475 1469 1462 1454 1446 1438 1430 1421 1413 1405 1396 1388 1379 1371 1363 1355 1348 1342 1337 1334 1332 1331 1331 1331 1332 1334 1336 1338 1340 1343 1345
1504 1506 1506 1506 1505 1503 1501 1498 1495 1491 1487 1483 1478 1472 1466 1458 1451 1443 1435 1427 1419 1411 1403 1394 1386 1378 1370 1362 1355 1348 1342 1337 1334 1332 1331 1330 1330 1331 1332 1334 1336 1338 1340 1343
1502 1503 1503 1502 1501 1499 1497 1495 1492 1488 1484 1480 1475 1469 1462 1455 1447 1440 1432 1425 1417 1409 1401 1394 1386 1378 1371 1363 1356 1350 1344 1339 1336 1333 1332 1331 1331 1331 1332 1333 1335 1337 1339 1341
1499 1499 1499 1499 1498 1496 1494 1491 1488 1484 1481 1476 1471 1465 1459 1452 1445 1438 1430 1422 1415 1407 1400 1393 1386 1379 1372 1365 1358 1352 1347 1342 1338 1336 1334 1333 1332 1332 1333 1334 1335 1337 1339 1341
1496 1496 1496 1495 1494 1492 1490 1488 1485 1481 1477 1473 1468 1462 1456 1450 1443 1435 1428 1420 1413 1406 1399 1392 1386 1380 1373 1367 1361 1355 1350 1346 1342 1339 1337 1335 1335 1335 1335 1335 1336 1337 1339 1340
1493 1493 1492 1491 1490 1489 1487 1485 1482 1479 1475 1471 1466 1460 1454 1447 1440 1433 1426 1419 1412 1406 1399 1393 1386 1380 1375 1369 1363 1358 1353 1349 1345 1343 1340 1339 1338 1337 1337 1337 1337 1338 1340 1341
1489 1489 1488 1488 1487 1486 1484 1482 1480 1476 1473 1469 1464 1458 1452 1445 1439 1432 1425 1418 1411 1405 1399 1393 1387 1381 1376 1371 1366 1361 1356 1353 1349 1346 1344 1342 1341 1340 1339 1339 1340 1340 1341 1342
1486 1486 1486 1485 1484 1483 1481 1479 1477 1474 1470 1466 1461 1456 1450 1444 1438 1431 1425 1418 1411 1405 1399 1393 1387 1382 1376 1372 1368 1363 1359 1356 1353 1350 1348 1346 1344 1343 1342 1342 1342 1342 1343 1344
1483 1483 1482 1482 1481 1480 1478 1476 1474 1471 1468 1464 1459 1454 1448 1442 1436 1430 1423 1418 1413 1407 1400 1394 1388 1382 1377 1373 1369 1365 1362 1359 1356 1353 1351 1349 1348 1347 1346 1345 1345 1345 1346 1348
1479 1479 1479 1478 1477 1476 1475 1474 1472 1469 1466 1462 1457 1452 1447 1441 1436 1430 1423 1417 1412 1406 1401 1394 1388 1383 1378 1374 1370 1367 1363 1360 1358 1356 1354 1352 1351 1350 1349 1348 1348 1349 1350 1351
1475 1475 1475 1474 1474 1473 1472 1471 1469 1467 1464 1460 1455 1451 1445 1439 1434 1428 1424 1419 1413 1407 1402 1396 1390 1385 1380 1375 1371 1368 1365 1362 1360 1358 1356 1355 1354 1353 1352 1352 1352 1353 1354 1355
1472 1471 1471 1471 1470 1470 1470 1468 1467 1464 1461 1458 1454 1449 1444 1439 1434 1428 1422 1418 1413 1408 1403 1398 1392 1387 1382 1377 1373 1369 1366 1364 1362 1360 1358 1357 1357 1356 1356 1356 1356 1357 1358 1360
1468 1468 1467 1467 1467 1467 1467 1466 1464 1462 1460 1457 1453 1448 1443 1438 1433 1428 1424 1418 1413 1409 1404 1399 1394 1389 1384 1380 1376 1372 1369 1366 1364 1362 1361 1360 1359 1359 1359 1360 1360 1362 1363 1365
1464 1464 1463 1463 1463 1463 1463 1463 1462 1460 1458 1455 1451 1447 1442 1438 1433 1428 1423 1418 1413 1409 1405 1401 1396 1392 1387 1383 1380 1376 1373 1370 1368 1366 1364 1364 1363 1363 1363 1364 1365 1367 1368 1371
1459 1459 1459 1459 1459 1460 1460 1459 1458 1457 1455 1453 1450 1446 1441 1437 1432 1427 1423 1418 1414 1409 1405 1401 1398 1394 1390 1387 1383 1380 1377 1374 1372 1370 1369 1368 1368 1368 1368 1369 1370 1371 1373 1375
1454 1454 1454 1454 1455 1456 1456 1456 1455 1454 1452 1451 1448 1444 1440 1436 1431 1427 1423 1418 1414 1410 1406 1402 1399 1396 1393 1390 1387 1384 1381 1379 1377 1375 1374 1373 1372 1373 1373 1374 1375 1376 1378 1380